period_start,C,m1,H,J0,J1,J2,J3,J4,J5,JA,JB,JC,JD,JJ,JK,JN,#
2017-04-11 00:02:38,0.07,2.40,0.00,21.30,24.31,28.26,14.82,48.19,1022.96,2039.99,2699.62,2473.73,2828.33,600.18,603.36,23.39,0000 0000 0000 0000 000000
2017-04-11 00:07:39,0.06,2.40,0.00,21.34,24.33,28.30,14.70,48.05,1022.96,2039.98,2698.48,2472.98,2827.41,600.03,603.11,23.44,0000 0000 0000 0000 000000
2017-04-11 00:12:41,0.07,2.41,0.00,21.35,24.35,28.29,14.65,48.03,1022.97,2039.97,2697.29,2472.11,2826.50,599.69,602.90,23.49,0000 0000 0000 0000 000000
2017-04-11 00:17:42,0.07,2.41,0.00,21.39,24.37,28.31,14.64,48.02,1022.97,2039.96,2696.15,2471.43,2825.63,599.79,602.80,23.54,0000 0000 0000 0000 000000
2017-04-11 00:22:43,0.05,2.41,0.00,21.44,24.40,28.33,14.76,48.02,1022.97,2039.80,2694.99,2470.65,2824.69,600.20,603.11,23.59,0000 0000 0000 0000 000000
2017-04-11 00:27:45,0.02,2.42,0.00,21.45,24.43,28.35,14.66,47.93,1022.97,2039.46,2693.98,2469.94,2823.87,600.12,603.16,23.64,0000 0000 0000 0000 000000
2017-04-11 00:32:46,0.04,2.42,0.00,21.48,24.46,28.38,14.65,48.03,1022.98,2039.14,2692.94,2469.11,2822.96,599.90,602.73,23.69,0000 0000 0000 0000 000000
2017-04-11 00:37:48,0.06,2.42,0.00,21.55,24.48,28.39,14.64,48.02,1022.98,2039.01,2692.04,2468.34,2822.09,600.01,602.68,23.74,0000 0000 0000 0000 000000
2017-04-11 00:42:49,0.06,2.42,0.00,21.57,24.51,28.43,14.69,48.06,1022.98,2039.01,2691.06,2467.80,2821.29,600.05,602.73,23.79,0000 0000 0000 0000 000000
2017-04-11 00:47:50,0.06,2.43,0.00,21.63,24.54,28.45,14.71,48.16,1022.97,2039.00,2690.05,2467.02,2820.42,599.97,602.58,23.84,0000 0000 0000 0000 000000
2017-04-11 00:52:51,0.06,2.43,0.00,21.67,24.58,28.48,14.66,48.13,1022.97,2039.00,2689.13,2466.35,2819.76,599.76,602.15,23.89,0000 0000 0000 0000 000000
2017-04-11 00:57:52,0.05,2.43,0.00,21.71,24.61,28.50,14.71,48.15,1022.97,2038.98,2688.30,2465.78,2818.90,600.08,602.45,23.94,0000 0000 0000 0000 000000
2017-04-11 01:02:54,0.05,2.44,0.00,21.78,24.65,28.55,14.67,48.11,1022.96,2038.91,2687.37,2465.03,2818.07,600.04,602.33,23.99,0000 0000 0000 0000 000000
2017-04-11 01:07:55,0.02,2.44,0.00,21.85,24.68,28.58,14.68,48.00,1022.96,2038.49,2686.55,2464.39,2817.31,600.33,602.41,24.04,0000 0000 0000 0000 000000
2017-04-11 01:12:56,0.01,2.44,0.00,21.88,24.72,28.59,14.61,48.00,1022.96,2038.08,2685.72,2463.91,2816.57,599.95,601.98,24.09,0000 0000 0000 0000 000000
2017-04-11 01:17:57,0.05,2.44,0.00,21.95,24.76,28.63,14.67,47.98,1022.96,2038.01,2684.79,2463.07,2815.89,599.97,601.81,24.14,0000 0000 0000 0000 000000
2017-04-11 01:22:58,0.07,2.44,0.00,21.97,24.79,28.67,14.61,48.08,1022.97,2038.00,2683.84,2462.29,2815.02,599.90,601.73,24.19,0000 0000 0000 0000 000000
2017-04-11 01:27:59,0.06,2.45,0.00,21.93,24.83,28.68,14.64,47.98,1022.97,2038.00,2682.80,2461.67,2814.14,600.02,602.03,24.24,0000 0000 0000 0000 000000
2017-04-11 01:33:00,0.04,2.45,0.00,22.00,24.87,28.72,14.65,48.00,1022.97,2037.98,2681.95,2461.02,2813.43,600.27,601.94,24.29,0000 0000 0000 0000 000000
2017-04-11 01:38:02,0.07,2.45,0.00,22.09,24.91,28.75,14.70,48.02,1022.96,2037.95,2681.06,2460.29,2812.67,600.12,601.67,24.34,0000 0000 0000 0000 000000
2017-04-11 01:43:03,-0.00,2.45,0.00,22.13,24.94,28.79,14.55,47.95,1022.96,2037.53,2680.16,2459.73,2811.85,599.64,601.33,24.39,0000 0000 0000 0000 000000
2017-04-11 01:48:04,0.02,2.45,0.00,22.18,24.98,28.82,14.63,47.99,1022.96,2037.05,2679.12,2459.01,2810.99,599.78,601.30,24.44,0000 0000 0000 0000 000000
2017-04-11 01:53:05,0.07,2.46,0.00,22.26,25.01,28.83,14.64,47.85,1022.96,2037.00,2678.18,2458.24,2810.15,599.95,601.21,24.49,0000 0000 0000 0000 000000
2017-04-11 01:58:06,0.07,2.46,0.00,22.24,25.06,28.90,14.60,47.98,1022.96,2037.00,2677.07,2457.52,2809.23,599.64,600.94,24.54,0000 0000 0000 0000 000000
2017-04-11 02:03:07,0.06,2.46,0.00,22.22,25.10,28.91,14.57,47.97,1022.96,2037.00,2676.05,2456.78,2808.35,599.89,601.22,24.59,0000 0000 0000 0000 000000
2017-04-11 02:08:09,0.05,2.47,0.00,22.33,25.14,28.95,14.62,47.97,1022.96,2036.92,2675.03,2456.02,2807.56,600.11,601.26,24.64,0000 0000 0000 0000 000000
2017-04-11 02:13:10,0.01,2.47,0.00,22.41,25.18,29.00,14.58,48.06,1022.96,2036.44,2673.99,2455.23,2806.63,599.65,600.60,24.69,0000 0000 0000 0000 000000
2017-04-11 02:18:11,0.05,2.47,0.00,22.45,25.23,29.03,14.66,48.09,1022.96,2036.13,2673.04,2454.58,2805.85,599.99,600.87,24.74,0000 0000 0000 0000 000000
2017-04-11 02:23:12,0.03,2.47,0.00,22.50,25.27,29.06,14.57,47.92,1022.96,2036.01,2672.17,2453.97,2805.02,600.06,600.76,24.79,0000 0000 0000 0000 000000
2017-04-11 02:28:13,0.07,2.48,0.00,22.52,25.32,29.10,14.61,47.98,1022.89,2036.00,2671.44,2453.15,2804.13,600.31,601.04,24.84,0000 0000 0000 0000 000000
2017-04-11 02:33:14,0.07,2.48,0.00,22.58,25.37,29.16,14.65,48.02,1022.83,2035.99,2670.44,2452.49,2803.34,600.09,600.55,24.89,0000 0000 0000 0000 000000
2017-04-11 02:38:16,0.03,2.48,0.00,22.68,25.41,29.17,14.58,48.03,1022.67,2035.73,2669.45,2451.79,2802.37,600.41,600.79,24.95,0000 0000 0000 0000 000000
2017-04-11 02:43:17,0.01,2.48,0.00,22.71,25.45,29.27,14.56,47.98,1022.55,2035.12,2668.46,2451.02,2801.59,599.70,599.80,25.00,0000 0000 0000 0000 000000
2017-04-11 02:48:18,0.05,2.48,0.00,22.71,25.50,29.29,14.61,48.08,1022.52,2035.01,2667.62,2450.31,2800.87,599.86,600.01,25.05,0000 0000 0000 0000 000000
2017-04-11 02:53:19,0.05,2.49,0.00,22.78,25.54,29.34,14.60,48.04,1022.50,2035.00,2666.65,2449.75,2800.02,599.97,599.92,25.10,0000 0000 0000 0000 000000
2017-04-11 02:58:21,0.05,2.49,0.00,22.86,25.58,29.38,14.59,47.92,1022.50,2034.97,2665.78,2449.01,2799.15,600.22,599.82,25.15,0000 0000 0000 0000 000000
2017-04-11 03:03:22,0.05,2.49,0.00,22.83,25.63,29.41,14.61,48.08,1022.50,2034.78,2664.90,2448.28,2798.35,600.24,600.16,25.20,0000 0000 0000 0000 000000
2017-04-11 03:08:23,-0.01,2.49,0.00,22.91,25.67,29.47,14.56,47.94,1022.49,2034.20,2664.01,2447.78,2797.60,600.30,599.90,25.25,0000 0000 0000 0000 000000
2017-04-11 03:13:24,0.03,2.49,0.00,22.96,25.71,29.51,14.57,47.98,1022.49,2034.03,2663.11,2447.03,2796.89,600.11,599.65,25.30,0000 0000 0000 0000 000000
2017-04-11 03:18:26,0.07,2.50,0.00,22.94,25.75,29.58,14.55,47.89,1022.49,2034.00,2662.23,2446.36,2796.03,599.73,599.34,25.35,0000 0000 0000 0000 000000
2017-04-11 03:23:27,0.05,2.50,0.00,23.00,25.79,29.60,14.61,47.90,1022.48,2033.98,2661.30,2445.85,2795.18,600.40,599.86,25.40,0000 0000 0000 0000 000000
2017-04-11 03:28:28,0.06,2.50,0.00,23.07,25.83,29.66,14.46,47.84,1022.48,2033.95,2660.44,2445.06,2794.44,599.61,598.96,25.45,0000 0000 0000 0000 000000
2017-04-11 03:33:30,-0.01,2.50,0.00,23.06,25.86,29.69,14.55,47.90,1022.48,2033.46,2659.65,2444.50,2793.76,600.04,599.34,25.50,0000 0000 0000 0000 000000
2017-04-11 03:38:32,0.02,2.50,0.00,23.06,25.90,29.75,14.54,47.91,1022.47,2033.08,2658.79,2443.93,2792.97,599.81,599.14,25.55,0000 0000 0000 0000 000000
2017-04-11 03:43:33,0.05,2.51,0.00,23.16,25.94,29.78,14.54,47.91,1022.47,2033.02,2657.97,2443.14,2792.17,599.92,599.08,25.60,0000 0000 0000 0000 000000
2017-04-11 03:48:34,0.06,2.51,0.00,23.19,25.98,29.83,14.56,47.77,1022.47,2033.00,2657.07,2442.66,2791.49,600.39,599.47,25.65,0000 0000 0000 0000 000000
2017-04-11 03:53:36,0.05,2.51,0.00,23.19,26.01,29.86,14.54,47.89,1022.48,2033.00,2656.14,2442.01,2790.72,600.26,599.33,25.70,0000 0000 0000 0000 000000
2017-04-11 03:58:37,0.06,2.52,0.00,23.25,26.05,29.92,14.55,47.90,1022.46,2032.96,2655.39,2441.30,2790.01,599.83,598.79,25.75,0000 0000 0000 0000 000000
2017-04-11 04:03:38,0.03,2.52,0.00,23.27,26.09,29.94,14.58,47.77,1022.44,2032.80,2654.50,2440.91,2789.18,600.02,598.93,25.80,0000 0000 0000 0000 000000
2017-04-11 04:08:39,0.01,2.52,0.00,23.25,26.12,29.96,14.57,47.88,1022.47,2032.31,2653.60,2440.09,2788.50,599.98,598.96,25.85,0000 0000 0000 0000 000000
2017-04-11 04:13:40,0.02,2.52,0.00,23.33,26.16,30.02,14.56,47.84,1022.48,2032.06,2652.87,2439.67,2787.92,600.12,599.01,25.90,0000 0000 0000 0000 000000
2017-04-11 04:18:42,0.05,2.52,0.00,23.35,26.19,30.06,14.51,47.78,1022.48,2032.01,2652.02,2439.00,2787.09,599.95,598.71,25.95,0000 0000 0000 0000 000000
2017-04-11 04:23:43,0.07,2.53,0.00,23.30,26.23,30.07,14.51,47.88,1022.48,2032.00,2651.13,2438.22,2786.29,599.64,598.51,26.00,0000 0000 0000 0000 000000
2017-04-11 04:28:44,0.05,2.53,0.00,23.38,26.27,30.13,14.58,47.94,1022.48,2032.00,2650.33,2437.80,2785.63,600.09,598.93,26.05,0000 0000 0000 0000 000000
2017-04-11 04:33:45,0.04,2.53,0.00,23.41,26.31,30.15,14.59,47.92,1022.47,2031.98,2649.56,2437.06,2784.96,599.65,598.29,26.10,0000 0000 0000 0000 000000
2017-04-11 04:38:47,0.05,2.53,0.00,23.39,26.34,30.21,14.58,47.88,1022.47,2031.89,2648.72,2436.56,2784.13,600.21,598.87,26.15,0000 0000 0000 0000 000000
2017-04-11 04:43:48,0.00,2.53,0.00,23.41,26.37,30.23,14.50,47.93,1022.47,2031.53,2647.91,2435.99,2783.54,599.55,598.21,26.20,0000 0000 0000 0000 000000
2017-04-11 04:48:49,0.02,2.53,0.00,23.46,26.40,30.28,14.55,47.87,1022.47,2031.09,2647.04,2435.21,2782.76,599.90,598.52,26.25,0000 0000 0000 0000 000000
2017-04-11 04:53:51,0.04,2.54,0.00,23.43,26.43,30.32,14.57,48.00,1022.40,2031.01,2646.12,2434.80,2781.99,599.97,598.62,26.30,0000 0000 0000 0000 000000
2017-04-11 04:58:52,0.06,2.54,0.00,23.47,26.46,30.33,14.56,47.88,1022.24,2031.00,2645.22,2434.05,2781.20,599.88,598.27,26.35,0000 0000 0000 0000 000000
2017-04-11 05:03:54,0.07,2.54,0.00,23.51,26.49,30.37,14.65,47.87,1022.26,2031.00,2644.37,2433.51,2780.50,600.42,598.68,26.40,0000 0000 0000 0000 000000
2017-04-11 05:08:55,0.02,2.54,0.00,23.49,26.52,30.36,14.55,47.97,1022.15,2030.98,2643.72,2433.00,2779.93,599.60,597.94,26.45,0000 0000 0000 0000 000000
2017-04-11 05:13:57,0.06,2.55,0.00,23.50,26.55,30.42,14.49,47.78,1022.05,2030.94,2642.89,2432.32,2779.10,599.51,597.73,26.50,0000 0000 0000 0000 000000
2017-04-11 05:18:58,0.01,2.55,0.00,23.53,26.57,30.44,14.59,47.96,1022.05,2030.60,2641.98,2431.91,2778.38,600.17,598.33,26.55,0000 0000 0000 0000 000000
2017-04-11 05:23:59,0.02,2.55,0.00,23.53,26.60,30.44,14.55,47.83,1022.07,2030.21,2641.12,2431.11,2777.81,600.10,597.91,26.60,0000 0000 0000 0000 000000
2017-04-11 05:29:00,0.04,2.55,0.00,23.55,26.63,30.47,14.60,47.82,1022.11,2030.04,2640.38,2430.70,2777.01,600.10,598.34,26.65,0000 0000 0000 0000 000000
2017-04-11 05:34:01,0.05,2.55,0.00,23.57,26.66,30.48,14.60,47.88,1022.03,2030.00,2639.49,2430.01,2776.15,600.25,598.39,26.70,0000 0000 0000 0000 000000
2017-04-11 05:39:03,0.06,2.56,0.00,23.53,26.68,30.50,14.50,47.88,1022.04,2030.00,2638.67,2429.47,2775.58,599.96,598.08,26.75,0000 0000 0000 0000 000000
2017-04-11 05:44:04,0.02,2.56,0.00,23.55,26.71,30.56,14.63,47.97,1022.02,2030.00,2637.89,2428.98,2774.88,600.40,598.51,26.80,0000 0000 0000 0000 000000
2017-04-11 05:49:05,0.07,2.56,0.00,23.57,26.73,30.56,14.54,47.88,1022.03,2029.97,2637.03,2428.19,2774.07,599.88,597.87,26.85,0000 0000 0000 0000 000000
2017-04-11 05:54:06,0.03,2.56,0.00,23.55,26.75,30.59,14.54,47.87,1022.01,2029.95,2636.17,2427.92,2773.51,599.84,597.91,26.90,0000 0000 0000 0000 000000
2017-04-11 05:59:08,0.02,2.57,0.00,23.57,26.77,30.60,14.59,47.85,1021.99,2029.74,2635.50,2427.11,2772.88,600.35,598.41,26.95,0000 0000 0000 0000 000000
2017-04-11 06:04:09,0.02,2.57,0.00,23.59,26.80,30.63,14.51,47.83,1022.00,2029.40,2634.76,2426.80,2772.07,599.63,597.73,27.00,0000 0000 0000 0000 000000
2017-04-11 06:09:10,0.02,2.57,0.00,23.56,26.82,30.65,14.53,47.85,1022.00,2029.14,2633.93,2426.05,2771.46,599.73,597.94,27.05,0000 0000 0000 0000 000000
2017-04-11 06:14:11,0.05,2.57,0.00,23.60,26.84,30.67,14.61,47.58,1022.01,2029.03,2633.09,2425.61,2770.91,600.33,598.35,27.10,0000 0000 0000 0000 000000
2017-04-11 06:19:13,0.04,2.57,0.00,23.60,26.86,30.67,14.54,47.71,1022.00,2029.01,2632.38,2425.01,2770.09,599.99,597.93,27.15,0000 0000 0000 0000 000000
2017-04-11 06:24:14,0.07,2.57,0.00,23.62,26.87,30.70,14.65,47.78,1022.00,2029.00,2631.54,2424.40,2769.47,600.14,598.09,27.20,0000 0000 0000 0000 000000
2017-04-11 06:29:15,0.02,2.58,0.00,23.64,26.90,30.71,14.55,47.61,1022.00,2029.00,2630.83,2423.99,2768.96,599.92,597.83,27.25,0000 0000 0000 0000 000000
2017-04-11 06:34:17,0.06,2.58,0.00,23.61,26.91,30.71,14.53,47.70,1021.99,2029.00,2630.06,2423.48,2768.23,599.82,597.78,27.30,0000 0000 0000 0000 000000
2017-04-11 06:39:18,0.03,2.58,0.00,23.65,26.93,30.74,14.55,47.76,1021.99,2029.00,2629.27,2422.99,2767.80,599.83,597.68,27.35,0000 0000 0000 0000 000000
2017-04-11 06:44:19,0.06,2.59,0.00,23.69,26.95,30.74,14.54,47.73,1021.99,2028.96,2628.66,2422.32,2767.02,599.81,597.50,27.40,0000 0000 0000 0000 000000
2017-04-11 06:49:20,0.03,2.59,0.00,23.66,26.97,30.77,14.60,47.73,1021.99,2028.91,2627.81,2421.95,2766.24,600.13,597.96,27.45,0000 0000 0000 0000 000000
2017-04-11 06:54:22,0.05,2.59,0.00,23.72,27.00,30.76,14.53,47.74,1021.99,2028.90,2627.03,2421.18,2765.81,600.05,597.79,27.50,0000 0000 0000 0000 000000
2017-04-11 06:59:23,0.01,2.59,0.00,23.73,27.01,30.80,14.57,47.77,1021.99,2028.64,2626.22,2420.87,2765.05,600.04,597.77,27.55,0000 0000 0000 0000 000000
2017-04-11 07:04:24,0.04,2.59,0.00,23.71,27.03,30.82,14.51,47.77,1021.99,2028.33,2625.22,2420.07,2764.26,599.66,597.49,27.60,0000 0000 0000 0000 000000
2017-04-11 07:09:25,0.05,2.60,0.00,23.77,27.05,30.87,14.53,47.79,1021.99,2028.09,2624.20,2419.31,2763.41,599.71,597.48,27.65,0000 0000 0000 0000 000000
2017-04-11 07:14:26,0.04,2.60,0.00,23.79,27.06,30.86,14.53,47.65,1021.99,2028.05,2623.21,2418.92,2762.77,599.97,597.54,27.70,0000 0000 0000 0000 000000
2017-04-11 07:19:28,0.05,2.60,0.00,23.77,27.08,30.87,14.60,47.74,1021.99,2028.03,2622.66,2418.14,2762.04,600.22,597.96,27.75,0000 0000 0000 0000 000000
2017-04-11 07:24:29,0.06,2.60,0.00,23.81,27.10,30.90,14.57,47.67,1022.00,2028.01,2621.74,2417.65,2761.33,599.85,597.41,27.80,0000 0000 0000 0000 000000
2017-04-11 07:29:30,0.04,2.61,0.00,23.82,27.12,30.90,14.58,47.73,1021.99,2028.00,2620.93,2417.00,2760.66,599.95,597.37,27.85,0000 0000 0000 0000 000000
2017-04-11 07:34:31,0.06,2.61,0.00,23.82,27.14,30.92,14.60,47.72,1021.99,2028.00,2620.07,2416.26,2759.91,600.11,597.63,27.90,0000 0000 0000 0000 000000
2017-04-11 07:39:32,0.04,2.61,0.00,23.85,27.15,30.94,14.55,47.58,1021.99,2028.00,2619.31,2415.94,2759.08,600.11,597.51,27.96,0000 0000 0000 0000 000000
2017-04-11 07:44:34,0.06,2.61,0.00,23.86,27.17,30.95,14.51,47.62,1022.00,2027.99,2618.74,2415.16,2758.52,599.64,597.17,28.01,0000 0000 0000 0000 000000
2017-04-11 07:49:35,0.02,2.62,0.00,23.85,27.19,30.97,14.58,47.63,1021.99,2027.96,2617.99,2414.89,2757.96,599.86,597.35,28.06,0000 0000 0000 0000 000000
2017-04-11 07:54:37,0.07,2.62,0.00,23.89,27.20,31.02,14.58,47.69,1021.99,2027.95,2617.12,2414.08,2757.14,599.99,597.38,28.11,0000 0000 0000 0000 000000
2017-04-11 07:59:38,0.04,2.62,0.00,23.89,27.22,31.00,14.54,47.70,1021.99,2027.96,2616.35,2413.88,2756.62,600.01,597.40,28.16,0000 0000 0000 0000 000000
2017-04-11 08:04:39,0.04,2.62,0.00,23.91,27.23,31.02,14.55,47.62,1021.99,2027.91,2615.64,2413.11,2756.01,599.60,596.99,28.21,0000 0000 0000 0000 000000
2017-04-11 08:09:41,0.01,2.62,0.00,24.00,27.25,31.06,14.50,47.58,1022.00,2027.47,2614.84,2412.61,2755.20,599.91,597.09,28.26,0000 0000 0000 0000 000000
2017-04-11 08:14:42,0.03,2.63,0.00,24.41,27.26,31.02,14.49,47.55,1021.99,2027.41,2614.05,2412.02,2754.77,600.27,596.59,28.31,0000 0000 0000 0000 000000
2017-04-11 08:19:44,0.03,2.63,0.00,24.41,27.28,31.00,14.54,47.62,1021.99,2027.14,2613.19,2411.61,2754.03,600.20,596.57,28.36,0000 0000 0000 0000 000000
2017-04-11 08:24:45,0.04,2.63,0.00,24.43,27.31,30.98,14.44,47.46,1021.99,2027.08,2612.76,2411.03,2753.38,599.94,596.23,28.41,0000 0000 0000 0000 000000
2017-04-11 08:29:47,0.04,2.63,0.00,24.29,27.32,31.05,14.50,47.61,1021.99,2027.02,2611.93,2410.62,2752.87,600.00,596.59,28.46,0000 0000 0000 0000 000000
2017-04-11 08:34:48,0.05,2.64,0.00,24.14,27.34,31.04,14.60,47.71,1021.99,2027.01,2611.09,2410.01,2752.10,600.06,596.91,28.51,0000 0000 0000 0000 000000
2017-04-11 08:39:49,0.04,2.64,0.00,24.09,27.34,31.10,14.49,47.53,1021.99,2027.00,2610.42,2409.66,2751.82,599.56,596.63,28.56,0000 0000 0000 0000 000000
2017-04-11 08:44:50,0.04,2.64,0.00,24.03,27.34,31.15,14.49,47.51,1021.99,2027.00,2609.79,2409.03,2751.06,599.67,596.62,28.61,0000 0000 0000 0000 000000
2017-04-11 08:49:51,0.03,2.64,0.00,24.00,27.32,31.10,14.52,47.62,1021.99,2027.00,2609.03,2408.80,2750.79,599.50,596.67,28.66,0000 0000 0000 0000 000000
2017-04-11 08:54:53,0.06,2.64,0.00,23.99,27.32,31.07,14.52,47.53,1022.00,2027.00,2608.49,2408.07,2750.05,600.05,597.29,28.71,0000 0000 0000 0000 000000
2017-04-11 08:59:54,0.01,2.65,0.00,23.97,27.32,31.08,14.51,47.63,1021.99,2027.00,2607.89,2407.98,2749.82,600.11,597.43,28.76,0000 0000 0000 0000 000000
2017-04-11 09:04:55,0.06,2.65,0.00,23.96,27.32,31.12,14.57,47.63,1021.99,2027.00,2607.08,2407.30,2749.07,599.86,597.25,28.81,0000 0000 0000 0000 000000
2017-04-11 09:09:56,0.02,2.65,0.00,23.97,27.31,31.09,14.57,47.63,1021.99,2027.00,2606.72,2407.01,2748.86,599.90,597.13,28.86,0000 0000 0000 0000 000000
2017-04-11 09:14:57,0.05,2.65,0.00,23.96,27.30,31.11,14.56,47.49,1021.99,2027.00,2605.98,2406.62,2748.07,600.19,597.45,28.91,0000 0000 0000 0000 000000
2017-04-11 09:19:59,0.04,2.65,0.00,23.93,27.30,31.13,14.54,47.59,1021.99,2027.00,2605.14,2406.03,2747.79,600.04,597.07,28.96,0000 0000 0000 0000 000000
2017-04-11 09:25:00,0.03,2.66,0.00,23.96,27.30,31.12,14.41,47.52,1022.00,2027.00,2604.76,2405.97,2747.05,599.89,597.19,29.01,0000 0000 0000 0000 000000
2017-04-11 09:30:02,0.05,2.66,0.00,24.23,27.30,31.10,14.50,47.46,1021.99,2027.00,2604.02,2405.31,2746.72,600.14,596.85,29.06,0000 0000 0000 0000 000000
2017-04-11 09:35:03,0.03,2.66,0.00,24.26,27.30,31.03,14.52,47.52,1021.99,2027.00,2603.27,2404.98,2746.01,600.25,596.83,29.11,0000 0000 0000 0000 000000
2017-04-11 09:40:04,0.06,2.66,0.00,24.20,27.30,31.04,14.47,47.38,1021.99,2027.00,2602.64,2404.27,2745.42,600.39,597.16,29.16,0000 0000 0000 0000 000000
2017-04-11 09:45:06,0.01,2.67,0.00,24.18,27.30,31.11,14.57,47.55,1021.99,2027.00,2602.02,2404.00,2744.99,600.23,597.00,29.21,0000 0000 0000 0000 000000
2017-04-11 09:50:07,0.05,2.67,0.00,24.07,27.30,31.13,14.53,47.47,1021.99,2027.00,2601.37,2403.72,2744.50,600.13,597.23,29.26,0000 0000 0000 0000 000000
2017-04-11 09:55:08,0.02,2.67,0.00,24.02,27.29,31.04,14.51,47.40,1021.99,2027.00,2600.90,2403.04,2744.00,600.06,597.12,29.31,0000 0000 0000 0000 000000
2017-04-11 10:00:10,0.02,2.67,0.00,23.96,27.27,30.79,14.51,47.42,1021.99,2027.00,2600.12,2403.00,2743.86,600.17,597.34,29.36,0000 0000 0000 0000 000000
2017-04-11 10:05:11,0.02,2.67,0.00,23.91,27.25,30.70,14.49,47.33,1021.99,2027.00,2599.96,2402.90,2743.14,599.85,597.25,29.41,0000 0000 0000 0000 000000
2017-04-11 10:10:12,0.05,2.67,0.00,23.87,27.22,30.59,14.54,47.38,1021.99,2027.00,2599.17,2402.18,2742.99,599.82,597.26,29.46,0000 0000 0000 0000 000000
2017-04-11 10:15:14,0.02,2.68,0.00,23.83,27.20,30.59,14.55,47.40,1021.99,2027.01,2598.88,2402.01,2742.50,600.04,597.63,29.51,0000 0000 0000 0000 000000
2017-04-11 10:20:15,0.02,2.68,0.00,23.80,27.17,30.61,14.53,47.36,1021.98,2027.01,2598.11,2401.93,2742.02,600.02,597.64,29.56,0000 0000 0000 0000 000000
2017-04-11 10:25:16,0.04,2.68,0.00,23.79,27.15,30.63,14.48,47.28,1021.97,2027.01,2597.72,2401.30,2741.91,599.90,597.56,29.61,0000 0000 0000 0000 000000
2017-04-11 10:30:17,0.04,2.68,0.00,23.75,27.13,30.76,14.49,47.27,1021.87,2027.05,2597.03,2401.01,2741.15,599.95,597.61,29.66,0000 0000 0000 0000 000000
2017-04-11 10:35:18,0.03,2.68,0.00,23.73,27.11,30.82,14.60,47.31,1021.71,2027.15,2596.57,2400.99,2740.99,600.23,597.90,29.71,0000 0000 0000 0000 000000
2017-04-11 10:40:19,0.05,2.68,0.00,23.71,27.10,30.83,14.55,47.29,1021.72,2027.35,2596.02,2400.56,2740.72,599.80,597.53,29.76,0000 0000 0000 0000 000000
2017-04-11 10:45:20,0.05,2.69,0.00,23.67,27.07,30.88,14.52,47.13,1021.67,2027.51,2595.56,2400.06,2740.05,599.42,597.09,29.81,0000 0000 0000 0000 000000
2017-04-11 10:50:22,0.03,2.69,0.00,23.67,27.06,30.86,14.56,47.26,1021.64,2027.68,2594.97,2399.99,2739.94,599.86,597.46,29.86,0000 0000 0000 0000 000000
2017-04-11 10:55:23,0.07,2.69,0.00,23.64,27.05,30.89,14.66,47.38,1021.56,2027.82,2594.18,2399.68,2739.18,600.45,598.12,29.91,0000 0000 0000 0000 000000
2017-04-11 11:00:24,0.04,2.70,0.00,23.62,27.03,30.90,14.59,47.33,1021.51,2027.94,2593.79,2399.06,2739.00,600.16,597.87,29.96,0000 0000 0000 0000 000000
2017-04-11 11:05:25,0.03,2.70,0.00,23.61,27.02,30.85,14.52,47.27,1021.50,2027.95,2593.05,2398.99,2738.52,600.00,597.65,30.01,0000 0000 0000 0000 000000
2017-04-11 11:10:27,0.05,2.70,0.00,23.56,27.01,30.86,14.53,47.39,1021.50,2027.98,2592.65,2398.39,2738.01,599.93,597.69,30.06,0000 0000 0000 0000 000000
2017-04-11 11:15:28,0.02,2.70,0.00,23.52,27.00,30.83,14.55,47.35,1021.50,2027.98,2592.01,2398.01,2737.72,600.16,598.04,30.11,0000 0000 0000 0000 000000
2017-04-11 11:20:29,0.03,2.70,0.00,23.55,26.99,30.82,14.64,47.41,1021.50,2027.98,2591.33,2397.94,2737.06,600.33,598.17,30.16,0000 0000 0000 0000 000000
2017-04-11 11:25:30,0.04,2.70,0.00,23.49,26.97,30.83,14.54,47.33,1021.50,2027.99,2590.85,2397.25,2736.94,599.92,597.79,30.21,0000 0000 0000 0000 000000
2017-04-11 11:30:31,0.03,2.71,0.00,23.46,26.97,30.79,14.56,47.35,1021.50,2027.99,2590.07,2397.00,2736.20,599.89,597.84,30.26,0000 0000 0000 0000 000000
2017-04-11 11:35:33,0.00,2.71,0.00,23.46,26.95,30.74,14.54,47.20,1021.50,2027.99,2589.94,2396.95,2736.00,599.89,597.88,30.31,0000 0000 0000 0000 000000
2017-04-11 11:40:34,0.05,2.71,0.00,23.42,26.95,30.68,14.62,47.12,1021.50,2027.99,2589.20,2396.42,2735.81,600.01,598.12,30.36,0000 0000 0000 0000 000000
2017-04-11 11:45:35,0.03,2.71,0.00,23.37,26.93,30.69,14.45,47.14,1021.50,2027.99,2588.74,2396.01,2735.07,599.52,597.82,30.41,0000 0000 0000 0000 000000
2017-04-11 11:50:37,0.01,2.71,0.00,23.36,26.92,30.63,14.53,47.31,1021.50,2028.00,2588.03,2395.97,2734.97,600.03,598.29,30.46,0000 0000 0000 0000 000000
2017-04-11 11:55:38,0.06,2.71,0.00,23.32,26.90,30.60,14.63,47.31,1021.50,2028.00,2587.58,2395.49,2734.31,600.08,598.43,30.51,0000 0000 0000 0000 000000
2017-04-11 12:00:39,0.02,2.72,0.00,23.31,26.90,30.59,14.54,47.41,1021.50,2028.00,2586.77,2395.01,2733.98,599.65,598.03,30.56,0000 0000 0000 0000 000000
2017-04-11 12:05:41,0.05,2.72,0.00,23.29,26.87,30.52,14.54,47.31,1021.50,2028.03,2585.99,2394.78,2733.36,600.18,598.39,30.61,0000 0000 0000 0000 000000
2017-04-11 12:10:42,0.05,2.72,0.00,23.24,26.86,30.50,14.58,47.41,1021.50,2028.06,2585.22,2394.08,2733.00,600.05,598.51,30.66,0000 0000 0000 0000 000000
2017-04-11 12:15:44,0.02,2.72,0.00,23.24,26.85,30.51,14.58,47.41,1021.50,2028.07,2584.99,2394.00,2732.67,599.86,598.28,30.71,0000 0000 0000 0000 000000
2017-04-11 12:20:45,0.05,2.72,0.00,23.25,26.83,30.44,14.59,47.57,1021.50,2028.13,2584.26,2393.81,2732.03,599.78,598.27,30.76,0000 0000 0000 0000 000000
2017-04-11 12:25:46,0.05,2.73,0.00,23.19,26.81,30.44,14.57,47.42,1021.50,2028.26,2583.83,2393.08,2731.89,600.06,598.58,30.81,0000 0000 0000 0000 000000
2017-04-11 12:30:47,0.07,2.73,0.00,23.17,26.80,30.43,14.51,47.44,1021.49,2028.73,2583.13,2393.00,2731.26,600.13,598.67,30.86,0000 0000 0000 0000 000000
2017-04-11 12:35:49,0.02,2.73,0.00,23.15,26.78,30.38,14.60,47.41,1021.42,2028.80,2582.89,2392.95,2731.00,600.01,598.52,30.91,0000 0000 0000 0000 000000
2017-04-11 12:40:50,0.07,2.74,0.00,23.08,26.76,30.36,14.66,47.49,1021.27,2028.96,2582.09,2392.29,2730.76,600.11,598.76,30.96,0000 0000 0000 0000 000000
2017-04-11 12:45:51,0.03,2.74,0.00,23.07,26.75,30.32,14.53,47.38,1021.07,2028.98,2581.67,2392.01,2730.05,600.13,598.47,31.01,0000 0000 0000 0000 000000
2017-04-11 12:50:52,0.01,2.74,0.00,23.06,26.72,30.29,14.64,47.47,1021.04,2028.98,2581.01,2391.98,2729.97,600.18,598.61,31.06,0000 0000 0000 0000 000000
2017-04-11 12:55:54,0.07,2.74,0.00,23.00,26.71,30.26,14.63,47.44,1021.03,2028.98,2580.46,2391.35,2729.27,600.02,598.65,31.11,0000 0000 0000 0000 000000